Theta_e
324 326 327 327 327 326 326 327 328 329 329 329 329 328 327 323 324 319 318 318 315 313
310 309 309 312 314 324 327 327 328 327 324 325 328 326 325 320 319 318 316 314 312 310
313 313 313 313 310 312 320 320 322 323 324 322 323 322 321 315 314 312 309 308 307 305
312 313 313 313 312 313 313 313 315 316 315 311 310 312 311 308 307 304 301 301 300 298
310 310 309 308 306 307 307 305 304 303 304 302 302 303 303 301 301 299 296 294 293 291
306 306 304 303 301 300 299 298 297 297 297 296 297 298 297 295 292 291 290 289 288 288
302 302 302 301 300 298 297 296 294 293 293 293 292 291 288 288 288 288 288 288 288 288
296 297 295 295 294 293 292 291 290 289 288 288 287 286 288 287 288 287 286 287 287 288
293 292 291 290 290 290 290 289 288 288 288 287 286 289 289 288 287 287 287 287 287 288
290 288 288 288 288 288 288 288 287 287 288 288 289 289 288 288 288 288 287 287 286 285
287 286 285 286 286 286 287 287 287 287 288 288 288 288 287 286 287 286 286 286 286 285
285 284 283 283 284 284 285 285 285 285 286 286 287 287 286 285 285 284 283 284 284 285
284 284 283 283 282 283 285 284 284 284 284 284 285 286 286 285 285 283 282 282 283 283
282 282 283 282 281 282 283 282 282 282 283 283 284 285 285 284 284 284 283 282 281 282
Wind_Speed
3 3 5 6 6 5 5 6 8 7 8 9 9 8 7 5 7 5 5 8 7 5
3 4 4 5 3 3 5 6 6 5 4 5 6 6 7 4 4 5 4 4 3 3
4 3 3 4 5 7 4 2 4 4 4 3 4 3 5 2 1 3 1 2 4 2
5 4 4 3 3 3 1 2 2 2 2 1 3 1 4 4 4 5 5 5 6 7
4 4 4 4 4 3 4 4 3 4 5 4 3 4 5 6 6 7 7 6 8 7
5 5 4 4 4 4 5 5 5 5 5 5 5 6 7 8 8 8 8 7 7 6
5 5 5 4 5 5 5 6 5 6 6 6 6 7 7 8 9 9 9 8 7 7
4 5 5 5 4 5 6 6 6 6 7 7 6 4 7 8 9 10 10 7 7 7
5 4 4 5 5 6 6 7 6 6 6 7 3 11 13 11 9 9 9 9 8 7
5 5 5 5 6 6 6 6 7 7 6 7 7 10 12 9 7 8 7 7 6 5
5 5 5 6 6 6 6 6 6 6 6 7 6 11 12 10 8 7 6 5 5 5
5 6 6 5 6 5 5 5 4 4 5 6 6 12 12 9 7 7 6 5 5 5
4 5 5 6 6 4 4 5 4 5 4 3 4 9 8 6 5 7 5 5 5 3
4 5 5 6 4 6 6 6 5 5 3 3 2 5 6 6 4 4 5 5 4 3
Wind_Direction
265 247 241 238 228 226 226 233 235 237 237 241 238 242 232 221 230 208 225 234 218 214
178 218 245 263 290 246 226 248 259 235 214 243 244 247 230 212 218 209 215 231 217 180
164 184 225 256 245 239 234 268 246 250 252 278 258 240 216 156 144 174 151 183 126 76
157 158 158 173 185 206 132 257 254 271 73 74 64 126 119 108 111 107 86 64 87 80
122 108 110 89 73 80 109 86 92 87 100 95 91 75 102 107 103 107 102 92 83 75
125 122 114 108 102 88 89 80 70 87 92 94 90 98 93 94 88 85 84 88 98 94
134 129 121 112 103 102 103 99 92 79 87 80 84 82 81 91 92 86 81 78 82 94
119 114 111 108 95 86 81 88 86 89 78 75 74 83 100 100 105 109 109 108 106 108
136 120 113 108 111 111 107 104 99 91 99 104 101 128 131 133 126 131 131 127 124 123
149 135 133 132 129 125 122 120 112 117 122 118 119 131 130 120 126 130 134 136 140 134
157 149 144 143 136 126 128 135 140 138 129 122 122 136 134 123 124 124 122 128 129 133
170 154 156 153 148 134 140 140 139 133 122 134 143 152 150 136 129 127 121 120 132 146
165 157 161 150 144 138 152 145 138 127 133 124 138 167 169 154 144 144 142 133 118 133
163 159 156 148 151 152 151 143 145 144 146 138 152 159 170 177 171 164 158 156 157 156